Погода в Винтертуре

Швейцария     47°30′12″N   8°43′19″E
темп.,
°C
ветер,
м/с
пор.,
м/с
влажн.,
%
обл.,
%
осадки,
мм/ч
давл.,
гПа
погр.,
м
17 августа, ср
ср1723:00+17вюв11675 0.0 101111
02:00+15в117411 0.0 101111
05:00+14зюз118977 0.2 101212
08:00+16ююв2388100 0.3 101374
11:00+24св23475 0.0 1012812
14:00+28всв3235100 0.0 10101634
17:00+29св3435100 0.0 10081604
20:00+16ссз279998 9.3 1012279
18 августа, чт
чт1823:00+16ююз1299100 6.3 101472
02:00+17юз139890 7.9 1014156
05:00+15юз2598100 0.2 1014288
08:00+16ююз1298100 0.5 1014118
11:00+16ююз1193100 0.1 1014218
14:00+18з118646 0.4 1014454
17:00+22зсз116994 0.6 1012978
20:00+17ссз1293100 3.6 101219
19 августа, пт
пт1923:00+16юз0095100 0.8 101411
02:00+16сз1198100 2.1 101323
05:00+16з1199100 1.2 101323
08:00+16зюз1298100 1.3 1014100
11:00+19зюз3484100 0.6 1015686
14:00+22юз347098 2.4 1015981
17:00+24юз3450100 0.6 10141167
20:00+19ююз277142 0.6 1015183
20 августа, сб
сб2023:00+17ююз218095 0.2 101732
02:00+16ю2294100 0.6 101840
05:00+16ююз119489 0.0 101824
08:00+16зюз119364 0.1 101958
11:00+22з23575 0.1 1018853
14:00+26з234495 0.1 10172151
17:00+23в1161100 0.0 1017249
20:00+21ююв1171100 0.1 101811
21 августа, вс
вс2123:00+19ю1177100 0.1 101922
02:00+18ююв1180100 0.2 101823
05:00+17ююз1183100 0.0 101811
08:00+17ююз1184100 0.0 101826
11:00+19зсз0176100 0.0 1018321
14:00+24с2155100 0.2 10171113
17:00+24св2252100 0.3 10161539
20:00+20в1175100 0.5 101711